TimeEDT,TemperatureF,Dew PointF,Humidity,Sea Level PressureIn,VisibilityMPH,Wind Direction,Wind SpeedMPH,Gust SpeedMPH,PrecipitationIn,Events,Conditions,WindDirDegrees,DateUTC
2:35 AM,55.4,55.4,100,29.87,5.0,SE,4.6,-,0.02,Rain,Heavy Rain,140,2013-05-06 06:35:00
2:55 AM,55.4,55.4,100,29.87,4.0,Calm,Calm,-,0.14,Rain,Heavy Rain,0,2013-05-06 06:55:00
3:15 AM,55.4,55.4,100,29.88,7.0,East,3.5,-,0.05,Rain,Rain,80,2013-05-06 07:15:00
3:35 AM,54.9,54.9,100,29.85,5.0,East,3.5,-,0.12,Rain,Heavy Rain,80,2013-05-06 07:35:00
3:55 AM,54.7,54.7,100,29.85,4.0,ENE,4.6,-,0.20,Rain,Heavy Rain,60,2013-05-06 07:55:00
4:15 AM,54.3,54.3,100,29.89,5.0,ENE,4.6,-,0.07,Rain,Rain,60,2013-05-06 08:15:00
4:35 AM,54.3,54.3,100,29.88,5.0,NE,4.6,-,0.15,Rain,Heavy Rain,40,2013-05-06 08:35:00
4:55 AM,54.1,54.1,100,29.89,7.0,ENE,3.5,-,0.20,Rain,Rain,60,2013-05-06 08:55:00
5:15 AM,54.3,54.3,100,29.89,3.0,East,4.6,-,0.10,Rain,Heavy Rain,80,2013-05-06 09:15:00
5:35 AM,54.1,54.1,100,29.88,7.0,Calm,Calm,-,0.13,Rain,Rain,0,2013-05-06 09:35:00
5:55 AM,54.0,54.0,100,29.89,10.0,ENE,4.6,-,0.14,,Drizzle,60,2013-05-06 09:55:00
6:15 AM,54.0,54.0,100,29.88,5.0,Calm,Calm,-,0.03,Rain,Rain,0,2013-05-06 10:15:00
6:35 AM,53.8,53.8,100,29.89,5.0,Calm,Calm,-,0.07,Rain,Rain,0,2013-05-06 10:35:00
6:55 AM,53.8,53.8,100,29.90,10.0,Calm,Calm,-,0.09,Rain,Light Rain,0,2013-05-06 10:55:00
7:15 AM,53.8,53.8,100,29.90,4.0,Calm,Calm,-,N/A,,Drizzle,0,2013-05-06 11:15:00
7:35 AM,54.0,54.0,100,29.91,7.0,Calm,Calm,-,0.01,Rain,Rain,0,2013-05-06 11:35:00
7:55 AM,54.1,54.1,100,29.91,10.0,ENE,4.6,-,0.01,,Overcast,60,2013-05-06 11:55:00
8:15 AM,54.5,54.5,100,29.92,10.0,ENE,3.5,-,N/A,,Overcast,70,2013-05-06 12:15:00
8:35 AM,54.7,54.7,100,29.92,10.0,Calm,Calm,-,N/A,,Overcast,0,2013-05-06 12:35:00
8:55 AM,55.4,55.4,100,29.93,7.0,Calm,Calm,-,N/A,,Overcast,0,2013-05-06 12:55:00
9:15 AM,55.4,55.4,100,29.93,3.0,Calm,Calm,-,N/A,Rain,Light Rain,0,2013-05-06 13:15:00
9:35 AM,55.8,55.8,100,29.93,7.0,East,3.5,-,N/A,,Overcast,80,2013-05-06 13:35:00
9:55 AM,56.3,56.3,100,29.93,7.0,East,5.8,-,N/A,,Overcast,80,2013-05-06 13:55:00
10:15 AM,56.7,56.5,99,29.94,10.0,ENE,3.5,-,N/A,,Overcast,60,2013-05-06 14:15:00
10:35 AM,58.3,57.7,98,29.94,10.0,ENE,3.5,-,N/A,,Overcast,70,2013-05-06 14:35:00
10:55 AM,58.5,56.7,94,29.94,10.0,Calm,Calm,-,N/A,,Overcast,0,2013-05-06 14:55:00
11:15 AM,59.2,57.0,93,29.94,10.0,Calm,Calm,-,N/A,,Overcast,0,2013-05-06 15:15:00
11:35 AM,61.2,57.2,87,29.93,10.0,ESE,3.5,-,N/A,,Mostly Cloudy,110,2013-05-06 15:35:00
11:55 AM,63.7,57.6,80,29.93,10.0,ENE,8.1,-,N/A,,Mostly Cloudy,70,2013-05-06 15:55:00
12:15 PM,64.6,55.4,72,29.92,10.0,ESE,6.9,-,N/A,,Scattered Clouds,110,2013-05-06 16:15:00
12:35 PM,63.3,55.6,76,29.91,10.0,East,5.8,-,N/A,,Mostly Cloudy,90,2013-05-06 16:35:00
12:55 PM,61.0,51.8,72,29.91,10.0,WSW,5.8,-,N/A,,Overcast,240,2013-05-06 16:55:00
1:15 PM,61.2,52.7,74,29.90,10.0,Calm,Calm,-,N/A,,Mostly Cloudy,0,2013-05-06 17:15:00
1:35 PM,63.9,54.1,71,29.89,10.0,SW,4.6,-,N/A,,Mostly Cloudy,220,2013-05-06 17:35:00
1:55 PM,62.8,56.3,79,29.89,10.0,SSW,8.1,-,N/A,Rain,Light Rain,200,2013-05-06 17:55:00
2:15 PM,64.0,55.0,73,29.89,10.0,SSW,4.6,-,N/A,,Mostly Cloudy,200,2013-05-06 18:15:00
2:35 PM,64.6,52.3,64,29.89,10.0,South,8.1,-,N/A,,Scattered Clouds,190,2013-05-06 18:35:00
2:55 PM,64.0,52.9,67,29.89,10.0,SSW,6.9,-,N/A,,Clear,200,2013-05-06 18:55:00
3:15 PM,65.1,51.6,62,29.89,10.0,SSE,4.6,-,N/A,,Clear,160,2013-05-06 19:15:00
3:35 PM,67.3,47.5,49,29.88,10.0,SE,4.6,-,N/A,,Clear,130,2013-05-06 19:35:00
3:55 PM,67.1,47.1,49,29.88,10.0,SE,6.9,-,N/A,,Clear,140,2013-05-06 19:55:00
4:15 PM,67.5,44.1,43,29.88,10.0,SSE,10.4,-,N/A,,Clear,160,2013-05-06 20:15:00
4:35 PM,67.8,38.5,34,29.87,10.0,SSE,8.1,16.1,N/A,,Clear,160,2013-05-06 20:35:00
4:55 PM,68.2,41.5,38,29.87,10.0,South,9.2,-,N/A,,Clear,170,2013-05-06 20:55:00
5:15 PM,68.2,42.8,40,29.87,10.0,South,6.9,-,N/A,,Clear,190,2013-05-06 21:15:00
5:35 PM,67.8,38.8,35,29.87,10.0,SSE,6.9,-,N/A,,Clear,150,2013-05-06 21:35:00
5:55 PM,66.7,42.4,41,29.87,10.0,SSE,6.9,-,N/A,,Clear,150,2013-05-06 21:55:00
6:15 PM,66.0,43.3,44,29.88,10.0,South,6.9,-,N/A,,Clear,170,2013-05-06 22:15:00
6:55 PM,64.8,43.7,46,29.89,10.0,South,3.5,-,N/A,,Clear,180,2013-05-06 22:55:00
7:15 PM,64.2,43.9,48,29.89,10.0,SSE,5.8,-,N/A,,Clear,150,2013-05-06 23:15:00
7:35 PM,62.8,45.7,54,29.89,10.0,Calm,Calm,-,N/A,,Clear,0,2013-05-06 23:35:00
7:55 PM,61.0,47.5,61,29.90,10.0,SE,3.5,-,N/A,,Clear,140,2013-05-06 23:55:00
8:15 PM,57.2,49.5,75,29.90,10.0,Calm,Calm,-,N/A,,Clear,0,2013-05-07 00:15:00
8:35 PM,52.5,50.2,92,29.91,10.0,Calm,Calm,-,N/A,,Clear,0,2013-05-07 00:35:00
8:55 PM,50.7,49.3,95,29.91,10.0,Calm,Calm,-,N/A,,Clear,0,2013-05-07 00:55:00
9:15 PM,49.5,48.6,97,29.92,10.0,Calm,Calm,-,N/A,,Clear,0,2013-05-07 01:15:00
9:35 PM,51.6,48.9,90,29.93,10.0,WSW,4.6,-,N/A,,Clear,250,2013-05-07 01:35:00
9:55 PM,55.0,47.1,75,29.94,10.0,West,4.6,-,N/A,,Clear,270,2013-05-07 01:55:00
10:15 PM,54.5,46.9,76,29.94,10.0,WNW,3.5,-,N/A,,Clear,290,2013-05-07 02:15:00
10:35 PM,49.6,46.9,90,29.95,10.0,NW,3.5,-,N/A,,Clear,320,2013-05-07 02:35:00
10:55 PM,47.8,46.8,96,29.95,10.0,Calm,Calm,-,N/A,,Clear,0,2013-05-07 02:55:00
11:15 PM,47.8,46.6,95,29.95,10.0,Calm,Calm,-,N/A,,Clear,0,2013-05-07 03:15:00
11:35 PM,47.7,47.3,99,29.95,10.0,Calm,Calm,-,N/A,,Clear,0,2013-05-07 03:35:00
11:55 PM,46.0,45.5,98,29.95,10.0,Calm,Calm,-,N/A,,Clear,0,2013-05-07 03:55:00